Regional Weather Roundup
Issued by NWS

Home | Current Version | Previous Version | Text Only | Print | Product List | Glossary Off
Versions: 1 2 3 4 5 6 7 8 9 10 11 12 13 14 15 16 17 18 19 20 21 22 23 24 25 26 27

000
ASUS45 KSLC 261210
RWRUT

UTAH REGIONAL WEATHER ROUNDUP
NATIONAL WEATHER SERVICE SALT LAKE CITY UT
600 AM MDT WED APR 26 2017

UTZ001>011-023>025-261300-

NORTHERN UTAH

CITY           SKY/WX    TMP DP  RH WIND       PRES   REMARKS
BRIGHAM CITY   CLOUDY    47  34  59 SW3       29.88S
HILL AFB       CLOUDY    44  32  62 S8        29.88S
LOGAN          CLOUDY    42  38  85 CALM      29.87S
OGDEN          CLOUDY    43  33  68 S9        29.87F
SALT LAKE CITY MOCLDY    43  36  76 SE9       29.88F
TOOELE VALLEY  MOCLDY    37  32  81 SE10      29.89F WCI  30
WENDOVER       CLOUDY    46  29  51 NW3       29.89S
HEBER CITY     PTCLDY    28  27  93 CALM      29.90F
WEST JORDAN    CLOUDY    41  38  91 S5        29.90F

$$

UTZ011>015-024>027-261300-

CENTRAL/NORTHEAST UTAH

CITY           SKY/WX    TMP DP  RH WIND       PRES   REMARKS
PROVO AIRPORT  CLEAR     36  30  79 S5        29.93F WCI  32
MOAB/CANYONLAN PTCLDY    37  31  78 CALM      29.90S
DELTA          PTCLDY    32  30  93 NE5       29.92F WCI  27
PRICE          PTCLDY    32  24  72 E3        29.90F
RICHFIELD      CLEAR     27  27 100 CALM      29.96F
ROOSEVELT      CLOUDY    32  28  86 CALM      29.91F
VERNAL         CLOUDY    37  31  78 CALM      29.89F

$$

UTZ013>016-019>022-027-261300-

SOUTHERN UTAH

CITY           SKY/WX    TMP DP  RH WIND       PRES   REMARKS
BRYCE CANYON   PTCLDY    22  16  78 W6        29.98S WCI  14
CEDAR CITY     PTCLDY    32  21  64 S3        29.93F
MILFORD        PTCLDY    29  23  78 S9        29.93F WCI  20
ST GEORGE      MOSUNNY   47  20  34 SE3       29.93S
HANKSVILLE     PTCLDY    34  21  60 CALM      29.93S
KANAB          CLEAR     30  23  74 NE6       30.00S WCI  24
BLANDING       CLEAR     31  21  66 NE6       29.98S WCI  25

$$

REGIONAL REPORTS     COLORADO/ARIZONA

CITY           SKY/WX    TMP DP  RH WIND       PRES   REMARKS
CRAIG, CO      CLOUDY    33  28  81 NE3       29.91S
GRAND JUNCTION CLOUDY    36  35  96 CALM      29.91S
RIFLE, CO      CLOUDY    35  32  88 CALM      29.92S
MONTROSE, CO   CLOUDY    36  33  89 CALM      29.94S
CORTEZ, CO     CLEAR     28  24  85 CALM      29.92S
COLORADO CITY    N/A     30  21  69 CALM      29.99S
PAGE, AZ       CLEAR     45  22  40 S3        29.92S
GRAND CANYON   PTCLDY    19  12  74 NE3       29.99R
KINGMAN, AZ    MOCLDY    39  20  46 CALM      29.92S
FLAGSTAFF, AZ  PTCLDY    25  14  63 CALM      29.98S

$$

REGIONAL REPORTS    NEVADA/IDAHO/WYOMING

CITY           SKY/WX    TMP DP  RH WIND       PRES   REMARKS
LAS VEGAS, NV  MOCLDY    61  17  18 NW3       29.87S
ELY, NY        CLOUDY    31  23  72 S9        29.96F WCI  23
ELKO, NV       CLOUDY    45  32  60 S7        29.93S
POCATELLO, ID  CLOUDY    43  32  65 SW12      29.87R
BURLEY, ID     CLOUDY    44  32  62 W13       29.87R
FORT BRIDGER,    N/A     33  28  82 SW9       29.90F WCI  25
EVANSTON, WY   CLOUDY    30  28  92 SW9       29.88F WCI  22
ROCK SPRINGS,  MOCLDY    34  28  79 SW16      29.87S WCI  24
KEMMERER, WY     N/A     30  28  93 W6        29.87F WCI  24

$$




USA.gov is the U.S. government's official web portal to all federal, state and local government web resources and services.